Cosmos 2100 Rocket - Orbit

View from above orbital plane
View from above orbital plane
View from above satellite
View from above satellite

Ground track
Ground track

The orbit data is extracted from the following two-line orbital elements,

1 20805U 90083B   13140.88146198  .00000021  00000-0  58721-5 0  5794
2 20805 082.9381 085.7427 0029779 228.1883 184.8971 13.75650708138762
Epoch (UTC): 20 May 2013 21:09:18
Eccentricity: 0.0029779
inclination: 82.9381°
perigee height: 957 km
apogee height: 1001 km
right ascension of ascending node: 85.7427°
argument of perigee: 228.1883°
revolutions per day: 13.75650708
mean anomaly at epoch: 184.8971°
orbit number at epoch: 13876

The dashed part of the orbit path shows where the satellite is in the earth's shadow,  

Developed and maintained by Chris Peat, Heavens-Above GmbH. Please read the updated FAQ before sending e-mail. Imprint. DLR